Flag Weather past 2 weeks in Kempten, Bavaria, Germany

Now
56 °F

Partly sunny.


Feels Like: 56 °F
Forecast: 37 / 60 °F
Wind: 1 mph from Southeast

Location: Kempten

Current Time: Oct 30, 2014 at 2:12:14 PM

Latest Report: Oct 30, 2014 at 1:00 PM


Visibility: 38 mi

Pressure: 30.25 "Hg

Humidity: 51%

Dew point: 38 °F

Location of KemptenLocation

Historic Weather in Kempten — Graph

°F

Kempten temperature yesterday

Maximum temperature yesterday: 57 °F (at 3:00 PM)
Minimum temperature yesterday: 37 °F (at 1:00 AM)
Average temperature yesterday: 46 °F

Past Weeks' High & Low Weather Summary

 TemperatureHumidityPressure
High72 °F (Oct 19, 3:00 PM)99% (Oct 18, 3:00 AM)30.40 "Hg (Oct 18, 3:00 AM)
Low33 °F (Oct 27, 5:00 AM)38% (Oct 19, 3:00 PM)29.69 "Hg (Oct 21, 8:00 PM)
Average48 °F84%30.14 "Hg
* Reported Oct 15 2:00 PM — Oct 30 1:00 PM, Kempten, Weather by CustomWeather, © 2014

Note: Actual official high and low records may vary slightly from our data, if they occured in-between our weather recording intervals... More about our weather records

Advertising

Kempten weather history for previous 24 hours

 ConditionsComfort  
Time TempWeatherWind HumidityBarometerVisibility
1:00 PM
Oct 30
56 °FPartly sunny.1 mph51%30.25 "Hg37 mi
12:00 PM53 °FOvercast.1 mph57%30.27 "Hg31 mi
11:00 AM51 °FOvercast.2 mph66%30.28 "Hg31 mi
9:00 AM42 °FLight rain. Overcast.1 mph93%30.31 "Hg11 mi
8:00 AM41 °FLight rain. Overcast.2 mph83%30.31 "Hg19 mi
7:00 AM40 °FOvercast.2 mph90%30.30 "Hg18 mi
6:00 AM40 °FLight rain. Overcast.2 mph84%30.28 "Hg18 mi
5:00 AM40 °FOvercast.2 mph82%30.27 "Hg22 mi
3:00 AM37 °FPassing clouds.2 mph92%30.28 "Hg12 mi
2:00 AM39 °FPassing clouds.2 mph87%30.27 "Hg16 mi
1:00 AM38 °FClear.2 mph94%30.26 "Hg10 mi
12:00 AM37 °FClear.2 mph95%30.25 "Hg9 mi
11:00 PM
Oct 29
38 °FClear.3 mph93%30.24 "Hg5 mi
9:00 PM42 °FClear.2 mph93%30.20 "Hg6 mi
8:00 PM40 °FFog.2 mph96%30.19 "Hg3 mi
7:00 PM43 °FFog.1 mph90%30.16 "Hg4 mi
6:00 PM48 °FClear.2 mph84%30.12 "Hg7 mi
5:00 PM53 °FClear.2 mph68%30.09 "Hg13 mi
4:00 PM55 °FSunny.5 mph61%30.07 "Hg9 mi
3:00 PM57 °FScattered clouds.3 mph57%30.05 "Hg9 mi
2:00 PM56 °FPassing clouds.5 mph57%30.05 "Hg19 mi
Weather by CustomWeather, © 2014

See weather overviewHow to use our weather pages